Weather History for Pauls Valley, OK

Change the Weather History Date:

Wednesday, January 23, 2013

  Actual Average (KADH) Record (KADH)
Temperature  
Mean Temperature 51 °F -  
Max Temperature 69 °F 54 °F 81 °F (1943)
Min Temperature 33 °F 28 °F 2 °F (1963)
Degree Days  
Heating Degree Days 14    
Growing Degree Days 1 (Base 50)    
Moisture  
Dew Point 43 °F    
Average Humidity 74    
Maximum Humidity 100    
Minimum Humidity 49    
Precipitation  
Precipitation 0.00 in - - ()
Sea Level Pressure  
Sea Level Pressure 30.17 in    
Wind  
Wind Speed 5 mph (SSE)    
Max Wind Speed 12 mph    
Max Gust Speed 17 mph    
Visibility 10 miles    
Events      
Averages and records for this station are not official NWS values.
T = Trace of Precipitation, MM = Missing Value Source: NWS Daily Summary

Daily Weather History Graph

Daily Weather History Graph

Search for Another Location

Airport:

Trip Planner

Search our weather history database for the weather conditions in past years. The results will help you decide how hot, cold, wet, or windy it might be!

Date:

Astronomy

Jan. 23, 2013 Rise Set
Actual Time 7:32 AM CST 5:49 PM CST
Civil Twilight 7:05 AM CST 6:16 PM CST
Nautical Twilight 6:35 AM CST 6:47 PM CST
Astronomical Twilight 6:05 AM CST 7:17 PM CST
Moon 3:02 PM CST (1/23) 4:43 AM CST (1/23)
Length of Visible Light 11h 10m
Length of Day
10h 16m
Waxing Gibbous, 89% of the Moon is Illuminated
Jan 23
Waxing Gibbous
Jan 26
Full
Feb 3
Last Quarter
Feb 10
New
Feb 17
First Quarter

Hourly Weather History & Observations

Time (CST) Temp. Windchill Dew Point Humidity Pressure Visibility Wind Dir Wind Speed Gust Speed Precip Events Conditions
12:15 AM 39.2 °F 35.9 °F 35.6 °F 87% 30.22 in 10.0 mi NE 4.6 mph - N/A   Unknown
12:35 AM 37.4 °F 32.1 °F 33.8 °F 87% 30.22 in 10.0 mi ESE 6.9 mph - N/A   Unknown
12:55 AM 39.2 °F 34.2 °F 35.6 °F 87% 30.21 in 10.0 mi ESE 6.9 mph - N/A   Unknown
1:15 AM 41.0 °F 36.4 °F 37.4 °F 87% 30.20 in 10.0 mi ESE 6.9 mph - N/A   Unknown
1:35 AM 39.2 °F 34.2 °F 37.4 °F 93% 30.19 in 10.0 mi SE 6.9 mph - N/A   Unknown
1:55 AM 41.0 °F 37.1 °F 35.6 °F 81% 30.21 in 10.0 mi SE 5.8 mph - N/A   Unknown
2:15 AM 41.0 °F 37.1 °F 35.6 °F 81% 30.21 in 10.0 mi SE 5.8 mph - N/A   Unknown
2:35 AM 39.2 °F 37.0 °F 35.6 °F 87% 30.21 in 10.0 mi SSE 3.5 mph - N/A   Unknown
2:55 AM 37.4 °F 34.9 °F 35.6 °F 93% 30.21 in 10.0 mi SSE 3.5 mph - N/A   Unknown
3:15 AM 37.4 °F - 35.6 °F 93% 30.21 in 10.0 mi Calm Calm - N/A   Unknown
3:35 AM 37.4 °F 32.8 °F 35.6 °F 93% 30.19 in 10.0 mi SSE 5.8 mph - N/A   Unknown
3:55 AM 37.4 °F 34.9 °F 35.6 °F 93% 30.20 in 7.0 mi SSE 3.5 mph - N/A   Unknown
4:15 AM 37.4 °F 34.9 °F 35.6 °F 93% 30.19 in 10.0 mi SE 3.5 mph - N/A   Unknown
4:35 AM 35.6 °F 32.8 °F 33.8 °F 93% 30.19 in 7.0 mi East 3.5 mph - N/A   Unknown
4:55 AM 35.6 °F 31.7 °F 33.8 °F 93% 30.20 in 10.0 mi ESE 4.6 mph - N/A   Unknown
5:15 AM 35.6 °F 29.9 °F 35.6 °F 100% 30.19 in 10.0 mi SSE 6.9 mph - N/A   Unknown
5:35 AM 37.4 °F 31.4 °F 35.6 °F 93% 30.19 in 10.0 mi SSE 8.1 mph - N/A   Unknown
5:55 AM 37.4 °F 30.8 °F 33.8 °F 87% 30.19 in 10.0 mi SSE 9.2 mph - N/A   Unknown
6:15 AM 37.4 °F 33.8 °F 33.8 °F 87% 30.20 in 10.0 mi SE 4.6 mph - N/A   Unknown
6:35 AM 35.6 °F - 33.8 °F 93% 30.21 in 10.0 mi Calm Calm - N/A   Unknown
6:55 AM 33.8 °F 30.8 °F 32.0 °F 93% 30.21 in 10.0 mi SSE 3.5 mph - N/A   Unknown
7:15 AM 35.6 °F 32.8 °F 33.8 °F 93% 30.21 in 10.0 mi SE 3.5 mph - N/A   Unknown
7:35 AM 35.6 °F 30.7 °F 33.8 °F 93% 30.21 in 10.0 mi SSE 5.8 mph - N/A   Unknown
7:55 AM 35.6 °F 29.9 °F 33.8 °F 93% 30.21 in 10.0 mi South 6.9 mph - N/A   Unknown
8:15 AM 35.6 °F 30.7 °F 33.8 °F 93% 30.21 in 10.0 mi SSE 5.8 mph - N/A   Unknown
8:35 AM 37.4 °F 32.8 °F 35.6 °F 93% 30.22 in 10.0 mi SSE 5.8 mph - N/A   Unknown
9:15 AM 41.0 °F 38.0 °F 37.4 °F 87% 30.22 in 10.0 mi SSE 4.6 mph - N/A   Unknown
9:35 AM 42.8 °F 40.1 °F 39.2 °F 87% 30.22 in 10.0 mi SSE 4.6 mph - N/A   Unknown
9:55 AM 44.6 °F 43.1 °F 41.0 °F 87% 30.23 in 10.0 mi South 3.5 mph - N/A   Unknown
10:15 AM 50.0 °F - 42.8 °F 76% 30.24 in 10.0 mi Calm Calm - N/A   Unknown
10:35 AM 51.8 °F - 42.8 °F 71% 30.24 in 10.0 mi Calm Calm - N/A   Unknown
10:55 AM 55.4 °F - 44.6 °F 67% 30.24 in 10.0 mi Calm Calm - N/A   Unknown
11:15 AM 59.0 °F - 50.0 °F 72% 30.23 in 10.0 mi SSW 4.6 mph - N/A   Unknown
11:35 AM 60.8 °F - 50.0 °F 68% 30.22 in 10.0 mi South 6.9 mph - N/A   Unknown
11:55 AM 60.8 °F - 50.0 °F 68% 30.21 in 10.0 mi SSW 5.8 mph - N/A   Unknown
12:15 PM 62.6 °F - 50.0 °F 63% 30.19 in 10.0 mi SSW 6.9 mph - N/A   Unknown
12:35 PM 62.6 °F - 50.0 °F 63% 30.18 in 10.0 mi WSW 4.6 mph - N/A   Unknown
12:55 PM 64.4 °F - 50.0 °F 59% 30.17 in 10.0 mi SSW 6.9 mph - N/A   Unknown
1:15 PM 66.2 °F - 50.0 °F 56% 30.15 in 10.0 mi SSW 6.9 mph - N/A   Unknown
1:35 PM 68.0 °F - 50.0 °F 52% 30.15 in 10.0 mi SSW 5.8 mph - N/A   Unknown
1:55 PM 68.0 °F - 50.0 °F 52% 30.14 in 10.0 mi SW 11.5 mph - N/A   Unknown
2:15 PM 69.8 °F - 50.0 °F 49% 30.14 in 10.0 mi South 9.2 mph - N/A   Unknown
2:35 PM 69.8 °F - 50.0 °F 49% 30.14 in 10.0 mi SSW 8.1 mph - N/A   Unknown
2:55 PM 69.8 °F - 50.0 °F 49% 30.12 in 10.0 mi SSW 9.2 mph - N/A   Unknown
3:15 PM 69.8 °F - 50.0 °F 49% 30.12 in 10.0 mi SSW 8.1 mph 16.1 mph N/A   Unknown
3:35 PM 69.8 °F - 50.0 °F 49% 30.11 in 10.0 mi South 10.4 mph - N/A   Unknown
3:55 PM 69.8 °F - 50.0 °F 49% 30.11 in 10.0 mi SSW 9.2 mph 17.3 mph N/A   Unknown
4:15 PM 69.8 °F - 50.0 °F 49% 30.12 in 10.0 mi South 11.5 mph 17.3 mph N/A   Unknown
4:35 PM 69.8 °F - 50.0 °F 49% 30.11 in 10.0 mi SSW 8.1 mph - N/A   Unknown
4:55 PM 69.8 °F - 50.0 °F 49% 30.11 in 10.0 mi South 10.4 mph - N/A   Unknown
5:15 PM 68.0 °F - 50.0 °F 52% 30.10 in 10.0 mi SSW 8.1 mph - N/A   Unknown
5:35 PM 64.4 °F - 48.2 °F 56% 30.10 in 10.0 mi South 5.8 mph - N/A   Unknown
5:55 PM 64.4 °F - 48.2 °F 56% 30.11 in 10.0 mi Calm Calm - N/A   Unknown
6:15 PM 62.6 °F - 48.2 °F 59% 30.11 in 10.0 mi Calm Calm - N/A   Unknown
6:35 PM 64.4 °F - 48.2 °F 56% 30.11 in 10.0 mi SE 3.5 mph - N/A   Unknown
6:55 PM 62.6 °F - 48.2 °F 59% 30.13 in 10.0 mi SE 4.6 mph - N/A   Unknown
7:15 PM 60.8 °F - 48.2 °F 63% 30.13 in 10.0 mi Calm Calm - N/A   Unknown
7:35 PM 59.0 °F - 48.2 °F 67% 30.13 in 10.0 mi SSE 3.5 mph - N/A   Unknown
7:55 PM 60.8 °F - 48.2 °F 63% 30.13 in 10.0 mi SE 3.5 mph - N/A   Unknown
8:15 PM 59.0 °F - 46.4 °F 63% 30.13 in 10.0 mi SSE 4.6 mph - N/A   Unknown
8:35 PM 57.2 °F - 46.4 °F 67% 30.13 in 10.0 mi SSE 4.6 mph - N/A   Unknown
8:55 PM 57.2 °F - 46.4 °F 67% 30.13 in 10.0 mi SSE 4.6 mph - N/A   Unknown
9:15 PM 55.4 °F - 46.4 °F 72% 30.13 in 10.0 mi SE 4.6 mph - N/A   Unknown
9:35 PM 55.4 °F - 48.2 °F 77% 30.14 in 10.0 mi SE 4.6 mph - N/A   Unknown
9:55 PM 55.4 °F - 48.2 °F 77% 30.13 in 10.0 mi SSE 4.6 mph - N/A   Unknown
10:15 PM 55.4 °F - 48.2 °F 77% 30.14 in 10.0 mi SE 3.5 mph - N/A   Unknown
10:35 PM 53.6 °F - 48.2 °F 82% 30.13 in 10.0 mi SSE 5.8 mph - N/A   Unknown
10:55 PM 53.6 °F - 48.2 °F 82% 30.13 in 10.0 mi SSE 4.6 mph - N/A   Unknown
11:15 PM 53.6 °F - 48.2 °F 82% 30.13 in 10.0 mi SSE 5.8 mph - N/A   Unknown
11:35 PM 53.6 °F - 48.2 °F 82% 30.14 in 10.0 mi SSE 5.8 mph - N/A   Unknown
11:55 PM 53.6 °F - 48.2 °F 82% 30.14 in 10.0 mi SSE 4.6 mph - N/A   Unknown